Year,Month,Day,Hour,Minute,Value (Times are PST for temperature in C)
2017,05,23,00,00,17.60
2017,05,23,00,01,17.60
2017,05,23,00,02,17.60
2017,05,23,00,03,17.60
2017,05,23,00,04,17.60
2017,05,23,00,05,17.60
2017,05,23,00,06,17.50
2017,05,23,00,07,17.50
2017,05,23,00,08,17.50
2017,05,23,00,09,17.50
2017,05,23,00,10,17.50
2017,05,23,00,11,17.40
2017,05,23,00,12,17.40
2017,05,23,00,13,17.40
2017,05,23,00,14,17.40
2017,05,23,00,15,17.30
2017,05,23,00,16,17.30
2017,05,23,00,17,17.30
2017,05,23,00,18,17.30
2017,05,23,00,19,17.30
2017,05,23,00,20,17.20
2017,05,23,00,21,17.20
2017,05,23,00,22,17.20
2017,05,23,00,23,17.20
2017,05,23,00,24,17.20
2017,05,23,00,25,17.10
2017,05,23,00,26,17.10
2017,05,23,00,27,17.10
2017,05,23,00,28,17.10
2017,05,23,00,29,17.10
2017,05,23,00,30,17.10
2017,05,23,00,31,17.10
2017,05,23,00,32,17.10
2017,05,23,00,33,17.10
2017,05,23,00,34,17.10
2017,05,23,00,35,17.10
2017,05,23,00,36,17.10
2017,05,23,00,37,17.10
2017,05,23,00,38,17.00
2017,05,23,00,39,17.00
2017,05,23,00,40,17.00
2017,05,23,00,41,17.00
2017,05,23,00,42,17.00
2017,05,23,00,43,16.90
2017,05,23,00,44,16.90
2017,05,23,00,45,16.90
2017,05,23,00,46,16.90
2017,05,23,00,47,16.80
2017,05,23,00,48,16.80
2017,05,23,00,49,16.80
2017,05,23,00,50,16.80
2017,05,23,00,51,16.70
2017,05,23,00,52,16.70
2017,05,23,00,53,16.70
2017,05,23,00,54,16.70
2017,05,23,00,55,16.60
2017,05,23,00,56,16.60
2017,05,23,00,57,16.60
2017,05,23,00,58,16.60
2017,05,23,00,59,16.60
2017,05,23,01,00,16.50
2017,05,23,01,01,16.50
2017,05,23,01,02,16.50
2017,05,23,01,03,16.50
2017,05,23,01,04,16.50
2017,05,23,01,05,16.40
2017,05,23,01,06,16.40
2017,05,23,01,07,16.40
2017,05,23,01,08,16.40
2017,05,23,01,09,16.40
2017,05,23,01,10,16.30
2017,05,23,01,11,16.30
2017,05,23,01,12,16.30
2017,05,23,01,13,16.30
2017,05,23,01,14,16.30
2017,05,23,01,15,16.30
2017,05,23,01,16,16.20
2017,05,23,01,17,16.20
2017,05,23,01,18,16.20
2017,05,23,01,19,16.20
2017,05,23,01,20,16.10
2017,05,23,01,21,16.10
2017,05,23,01,22,16.10
2017,05,23,01,23,16.10
2017,05,23,01,24,16.10
2017,05,23,01,25,16.10
2017,05,23,01,26,16.00
2017,05,23,01,27,16.00
2017,05,23,01,28,16.00
2017,05,23,01,29,16.00
2017,05,23,01,30,15.90
2017,05,23,01,31,15.90
2017,05,23,01,32,15.90
2017,05,23,01,33,15.90
2017,05,23,01,34,15.90
2017,05,23,01,35,15.90
2017,05,23,01,36,15.80
2017,05,23,01,37,15.80
2017,05,23,01,38,15.80
2017,05,23,01,39,15.80
2017,05,23,01,40,15.80
2017,05,23,01,41,15.80
2017,05,23,01,42,15.70
2017,05,23,01,43,15.70
2017,05,23,01,44,15.70
2017,05,23,01,45,15.70
2017,05,23,01,46,15.70
2017,05,23,01,47,15.60
2017,05,23,01,48,15.60
2017,05,23,01,49,15.60
2017,05,23,01,50,15.60
2017,05,23,01,51,15.60
2017,05,23,01,52,15.60
2017,05,23,01,53,15.60
2017,05,23,01,54,15.60
2017,05,23,01,55,15.60
2017,05,23,01,56,15.60
2017,05,23,01,57,15.50
2017,05,23,01,58,15.50
2017,05,23,01,59,15.50
2017,05,23,02,00,15.50
2017,05,23,02,01,15.40
2017,05,23,02,02,15.40
2017,05,23,02,03,15.40
2017,05,23,02,04,15.40
2017,05,23,02,05,15.40
2017,05,23,02,06,15.40
2017,05,23,02,07,15.40
2017,05,23,02,08,15.40
2017,05,23,02,09,15.40
2017,05,23,02,10,15.40
2017,05,23,02,11,15.30
2017,05,23,02,12,15.30
2017,05,23,02,13,15.30
2017,05,23,02,14,15.30
2017,05,23,02,15,15.30
2017,05,23,02,16,15.30
2017,05,23,02,17,15.30
2017,05,23,02,18,15.30
2017,05,23,02,19,15.30
2017,05,23,02,20,15.30
2017,05,23,02,21,15.30
2017,05,23,02,22,15.30
2017,05,23,02,23,15.30
2017,05,23,02,24,15.30
2017,05,23,02,25,15.30
2017,05,23,02,26,15.30
2017,05,23,02,27,15.30
2017,05,23,02,28,15.30
2017,05,23,02,29,15.20
2017,05,23,02,30,15.20
2017,05,23,02,31,15.20
2017,05,23,02,32,15.20
2017,05,23,02,33,15.20
2017,05,23,02,34,15.20
2017,05,23,02,35,15.20
2017,05,23,02,36,15.20
2017,05,23,02,37,15.20
2017,05,23,02,38,15.10
2017,05,23,02,39,15.10
2017,05,23,02,40,15.10
2017,05,23,02,41,15.10
2017,05,23,02,42,15.10
2017,05,23,02,43,15.10
2017,05,23,02,44,15.20
2017,05,23,02,45,15.10
2017,05,23,02,46,15.20
2017,05,23,02,47,15.20
2017,05,23,02,48,15.20
2017,05,23,02,49,15.20
2017,05,23,02,50,15.10
2017,05,23,02,51,15.10
2017,05,23,02,52,15.10
2017,05,23,02,53,15.10
2017,05,23,02,54,15.10
2017,05,23,02,55,15.10
2017,05,23,02,56,15.10
2017,05,23,02,57,15.10
2017,05,23,02,58,15.10
2017,05,23,02,59,15.10
2017,05,23,03,00,15.10
2017,05,23,03,01,15.10
2017,05,23,03,02,15.10
2017,05,23,03,03,15.10
2017,05,23,03,04,15.00
2017,05,23,03,05,15.00
2017,05,23,03,06,14.90
2017,05,23,03,07,14.90
2017,05,23,03,08,14.90
2017,05,23,03,09,14.90
2017,05,23,03,10,14.90
2017,05,23,03,11,14.90
2017,05,23,03,12,14.90
2017,05,23,03,13,14.90
2017,05,23,03,14,14.80
2017,05,23,03,15,14.80
2017,05,23,03,16,14.80
2017,05,23,03,17,14.80
2017,05,23,03,18,14.80
2017,05,23,03,19,14.80
2017,05,23,03,20,14.80
2017,05,23,03,21,14.80
2017,05,23,03,22,14.70
2017,05,23,03,23,14.70
2017,05,23,03,24,14.70
2017,05,23,03,25,14.70
2017,05,23,03,26,14.70
2017,05,23,03,27,14.70
2017,05,23,03,28,14.60
2017,05,23,03,29,14.60
2017,05,23,03,30,14.60
2017,05,23,03,31,14.60
2017,05,23,03,32,14.50
2017,05,23,03,33,14.50
2017,05,23,03,34,14.50
2017,05,23,03,35,14.40
2017,05,23,03,36,14.40
2017,05,23,03,37,14.40
2017,05,23,03,38,14.40
2017,05,23,03,39,14.40
2017,05,23,03,40,14.40
2017,05,23,03,41,14.40
2017,05,23,03,42,14.40
2017,05,23,03,43,14.40
2017,05,23,03,44,14.40
2017,05,23,03,45,14.40
2017,05,23,03,46,14.40
2017,05,23,03,47,14.40
2017,05,23,03,48,14.40
2017,05,23,03,49,14.40
2017,05,23,03,50,14.40
2017,05,23,03,51,14.40
2017,05,23,03,52,14.30
2017,05,23,03,53,14.30
2017,05,23,03,54,14.30
2017,05,23,03,55,14.30
2017,05,23,03,56,14.30
2017,05,23,03,57,14.30
2017,05,23,03,58,14.30
2017,05,23,03,59,14.30
2017,05,23,04,00,14.30
2017,05,23,04,01,14.30
2017,05,23,04,02,14.30
2017,05,23,04,03,14.30
2017,05,23,04,04,14.30
2017,05,23,04,05,14.20
2017,05,23,04,06,14.20
2017,05,23,04,07,14.20
2017,05,23,04,08,14.20
2017,05,23,04,09,14.20
2017,05,23,04,10,14.20
2017,05,23,04,11,14.20
2017,05,23,04,12,14.10
2017,05,23,04,13,14.10
2017,05,23,04,14,14.10
2017,05,23,04,15,14.10
2017,05,23,04,16,14.10
2017,05,23,04,17,14.10
2017,05,23,04,18,14.00
2017,05,23,04,19,14.00
2017,05,23,04,20,14.00
2017,05,23,04,21,14.00
2017,05,23,04,22,13.90
2017,05,23,04,23,13.90
2017,05,23,04,24,13.90
2017,05,23,04,25,13.90
2017,05,23,04,26,13.90
2017,05,23,04,27,13.90
2017,05,23,04,28,13.90
2017,05,23,04,29,13.90
2017,05,23,04,30,13.90
2017,05,23,04,31,13.80
2017,05,23,04,32,13.80
2017,05,23,04,33,13.80
2017,05,23,04,34,13.80
2017,05,23,04,35,13.80
2017,05,23,04,36,13.80
2017,05,23,04,37,13.80
2017,05,23,04,38,13.80
2017,05,23,04,39,13.80
2017,05,23,04,40,13.80
2017,05,23,04,41,13.80
2017,05,23,04,42,13.80
2017,05,23,04,43,13.70
2017,05,23,04,44,13.70
2017,05,23,04,45,13.70
2017,05,23,04,46,13.70
2017,05,23,04,47,13.70
2017,05,23,04,48,13.70
2017,05,23,04,49,13.70
2017,05,23,04,50,13.70
2017,05,23,04,51,13.70
2017,05,23,04,52,13.70
2017,05,23,04,53,13.70
2017,05,23,04,54,13.70
2017,05,23,04,55,13.70
2017,05,23,04,56,13.60
2017,05,23,04,57,13.60
2017,05,23,04,58,13.60
2017,05,23,04,59,13.60
2017,05,23,05,00,13.60
2017,05,23,05,01,13.60
2017,05,23,05,02,13.60
2017,05,23,05,03,13.60
2017,05,23,05,04,13.60
2017,05,23,05,05,13.60
2017,05,23,05,06,13.60
2017,05,23,05,07,13.60
2017,05,23,05,08,13.60
2017,05,23,05,09,13.60
2017,05,23,05,10,13.60
2017,05,23,05,11,13.60
2017,05,23,05,12,13.60
2017,05,23,05,13,13.60
2017,05,23,05,14,13.60
2017,05,23,05,15,13.50
2017,05,23,05,16,13.50
2017,05,23,05,17,13.50
2017,05,23,05,18,13.50
2017,05,23,05,19,13.50
2017,05,23,05,20,13.50
2017,05,23,05,21,13.50
2017,05,23,05,22,13.50
2017,05,23,05,23,13.40
2017,05,23,05,24,13.40
2017,05,23,05,25,13.40
2017,05,23,05,26,13.40
2017,05,23,05,27,13.40
2017,05,23,05,28,13.40
2017,05,23,05,29,13.40
2017,05,23,05,30,13.40
2017,05,23,05,31,13.30
2017,05,23,05,32,13.30
2017,05,23,05,33,13.30
2017,05,23,05,34,13.30
2017,05,23,05,35,13.30
2017,05,23,05,36,13.30
2017,05,23,05,37,13.20
2017,05,23,05,38,13.20
2017,05,23,05,39,13.20
2017,05,23,05,40,13.20
2017,05,23,05,41,13.20
2017,05,23,05,42,13.20
2017,05,23,05,43,13.10
2017,05,23,05,44,13.10
2017,05,23,05,45,13.10
2017,05,23,05,46,13.10
2017,05,23,05,47,13.10
2017,05,23,05,48,13.10
2017,05,23,05,49,13.10
2017,05,23,05,50,13.10
2017,05,23,05,51,13.10
2017,05,23,05,52,13.20
2017,05,23,05,53,13.20
2017,05,23,05,54,13.20
2017,05,23,05,55,13.20
2017,05,23,05,56,13.20
2017,05,23,05,57,13.20
2017,05,23,05,58,13.20
2017,05,23,05,59,13.20
2017,05,23,06,00,13.30
2017,05,23,06,01,13.30
2017,05,23,06,02,13.30
2017,05,23,06,03,13.30
2017,05,23,06,04,13.30
2017,05,23,06,05,13.30
2017,05,23,06,06,13.30
2017,05,23,06,07,13.30
2017,05,23,06,08,13.30
2017,05,23,06,09,13.30
2017,05,23,06,10,13.40
2017,05,23,06,11,13.40
2017,05,23,06,12,13.40
2017,05,23,06,13,13.40
2017,05,23,06,14,13.50
2017,05,23,06,15,13.50
2017,05,23,06,16,13.50
2017,05,23,06,17,13.60
2017,05,23,06,18,13.60
2017,05,23,06,19,13.60
2017,05,23,06,20,13.60
2017,05,23,06,21,13.60
2017,05,23,06,22,13.60
2017,05,23,06,23,13.60
2017,05,23,06,24,13.60
2017,05,23,06,25,13.70
2017,05,23,06,26,13.70
2017,05,23,06,27,13.70
2017,05,23,06,28,13.70
2017,05,23,06,29,13.70
2017,05,23,06,30,13.70
2017,05,23,06,31,13.70
2017,05,23,06,32,13.70
2017,05,23,06,33,13.70
2017,05,23,06,34,13.70
2017,05,23,06,35,13.80
2017,05,23,06,36,13.80
2017,05,23,06,37,13.80
2017,05,23,06,38,13.80
2017,05,23,06,39,13.80
2017,05,23,06,40,13.80
2017,05,23,06,41,13.80
2017,05,23,06,42,13.80
2017,05,23,06,43,13.80
2017,05,23,06,44,13.80
2017,05,23,06,45,13.90
2017,05,23,06,46,13.90
2017,05,23,06,47,13.90
2017,05,23,06,48,13.90
2017,05,23,06,49,13.90
2017,05,23,06,50,13.90
2017,05,23,06,51,14.00
2017,05,23,06,52,14.00
2017,05,23,06,53,14.00
2017,05,23,06,54,14.10
2017,05,23,06,55,14.10
2017,05,23,06,56,14.10
2017,05,23,06,57,14.20
2017,05,23,06,58,14.20
2017,05,23,06,59,14.20
2017,05,23,07,00,14.20
2017,05,23,07,01,14.20
2017,05,23,07,02,14.20
2017,05,23,07,03,14.20
2017,05,23,07,04,14.20
2017,05,23,07,05,14.20
2017,05,23,07,06,14.20
2017,05,23,07,07,14.20
2017,05,23,07,08,14.20
2017,05,23,07,09,14.20
2017,05,23,07,10,14.20
2017,05,23,07,11,14.20
2017,05,23,07,12,14.20
2017,05,23,07,13,14.20
2017,05,23,07,14,14.20
2017,05,23,07,15,14.20
2017,05,23,07,16,14.20
2017,05,23,07,17,14.20
2017,05,23,07,18,14.20
2017,05,23,07,19,14.30
2017,05,23,07,20,14.30
2017,05,23,07,21,14.30
2017,05,23,07,22,14.30
2017,05,23,07,23,14.30
2017,05,23,07,24,14.40
2017,05,23,07,25,14.40
2017,05,23,07,26,14.40
2017,05,23,07,27,14.40
2017,05,23,07,28,14.50
2017,05,23,07,29,14.50
2017,05,23,07,30,14.60
2017,05,23,07,31,14.60
2017,05,23,07,32,14.60
2017,05,23,07,33,14.60
2017,05,23,07,34,14.60
2017,05,23,07,35,14.70
2017,05,23,07,36,14.70
2017,05,23,07,37,14.70
2017,05,23,07,38,14.70
2017,05,23,07,39,14.70
2017,05,23,07,40,14.80
2017,05,23,07,41,14.80
2017,05,23,07,42,14.80
2017,05,23,07,43,14.80
2017,05,23,07,44,14.80
2017,05,23,07,45,14.80
2017,05,23,07,46,14.80
2017,05,23,07,47,14.90
2017,05,23,07,48,14.90
2017,05,23,07,49,14.90
2017,05,23,07,50,15.00
2017,05,23,07,51,15.00
2017,05,23,07,52,15.10
2017,05,23,07,53,15.10
2017,05,23,07,54,15.20
2017,05,23,07,55,15.20
2017,05,23,07,56,15.20
2017,05,23,07,57,15.20
2017,05,23,07,58,15.20
2017,05,23,07,59,15.20
2017,05,23,08,00,15.30
2017,05,23,08,01,15.30
2017,05,23,08,02,15.30
2017,05,23,08,03,15.30
2017,05,23,08,04,15.30
2017,05,23,08,05,15.30
2017,05,23,08,06,15.30
2017,05,23,08,07,15.30
2017,05,23,08,08,15.30
2017,05,23,08,09,15.30
2017,05,23,08,10,15.30
2017,05,23,08,11,15.30
2017,05,23,08,12,15.40
2017,05,23,08,13,15.40
2017,05,23,08,14,15.40
2017,05,23,08,15,15.50
2017,05,23,08,16,15.50
2017,05,23,08,17,15.50
2017,05,23,08,18,15.50
2017,05,23,08,19,15.40
2017,05,23,08,20,15.40
2017,05,23,08,21,15.50
2017,05,23,08,22,15.50
2017,05,23,08,23,15.50
2017,05,23,08,24,15.60
2017,05,23,08,25,15.60
2017,05,23,08,26,15.70
2017,05,23,08,27,15.70
2017,05,23,08,28,15.70
2017,05,23,08,29,15.80
2017,05,23,08,30,15.80
2017,05,23,08,31,15.80
2017,05,23,08,32,15.80
2017,05,23,08,33,15.80
2017,05,23,08,34,15.80
2017,05,23,08,35,15.80
2017,05,23,08,36,15.80
2017,05,23,08,37,15.90
2017,05,23,08,38,15.90
2017,05,23,08,39,15.90
2017,05,23,08,40,15.90
2017,05,23,08,41,15.80
2017,05,23,08,42,15.80
2017,05,23,08,43,15.80
2017,05,23,08,44,15.80
2017,05,23,08,45,15.80
2017,05,23,08,46,15.90
2017,05,23,08,47,15.90
2017,05,23,08,48,16.00
2017,05,23,08,49,16.00
2017,05,23,08,50,16.10
2017,05,23,08,51,16.10
2017,05,23,08,52,16.20
2017,05,23,08,53,16.20
2017,05,23,08,54,16.30
2017,05,23,08,55,16.30
2017,05,23,08,56,16.30
2017,05,23,08,57,16.30
2017,05,23,08,58,16.30
2017,05,23,08,59,16.40
2017,05,23,09,00,16.40
2017,05,23,09,01,16.40
2017,05,23,09,02,16.30
2017,05,23,09,03,16.40
2017,05,23,09,04,16.40
2017,05,23,09,05,16.40
2017,05,23,09,06,16.40
2017,05,23,09,07,16.40
2017,05,23,09,08,16.40
2017,05,23,09,09,16.40
2017,05,23,09,10,16.50
2017,05,23,09,11,16.60
2017,05,23,09,12,16.60
2017,05,23,09,13,16.70
2017,05,23,09,14,16.70
2017,05,23,09,15,16.70
2017,05,23,09,16,16.80
2017,05,23,09,17,16.80
2017,05,23,09,18,16.80
2017,05,23,09,19,16.80
2017,05,23,09,20,16.80
2017,05,23,09,21,16.80
2017,05,23,09,22,16.80
2017,05,23,09,23,16.90
2017,05,23,09,24,16.90
2017,05,23,09,25,16.90
2017,05,23,09,26,17.00
2017,05,23,09,27,17.00
2017,05,23,09,28,17.10
2017,05,23,09,29,17.10
2017,05,23,09,30,17.20
2017,05,23,09,31,17.20
2017,05,23,09,32,17.20
2017,05,23,09,33,17.30
2017,05,23,09,34,17.30
2017,05,23,09,35,17.30
2017,05,23,09,36,17.30
2017,05,23,09,37,17.30
2017,05,23,09,38,17.40
2017,05,23,09,39,17.40
2017,05,23,09,40,17.40
2017,05,23,09,41,17.40
2017,05,23,09,42,17.50
2017,05,23,09,43,17.50
2017,05,23,09,44,17.60
2017,05,23,09,45,17.70
2017,05,23,09,46,17.80
2017,05,23,09,47,17.90
2017,05,23,09,48,17.90
2017,05,23,09,49,18.00
2017,05,23,09,50,18.10
2017,05,23,09,51,18.20
2017,05,23,09,52,18.20
2017,05,23,09,53,18.20
2017,05,23,09,54,18.20
2017,05,23,09,55,18.30
2017,05,23,09,56,18.30
2017,05,23,09,57,18.30
2017,05,23,09,58,18.30
2017,05,23,09,59,18.20
2017,05,23,10,00,18.20
2017,05,23,10,01,18.20
2017,05,23,10,02,18.20
2017,05,23,10,03,18.20
2017,05,23,10,04,18.20
2017,05,23,10,05,18.20
2017,05,23,10,06,18.20
2017,05,23,10,07,18.30
2017,05,23,10,08,18.30
2017,05,23,10,09,18.20
2017,05,23,10,10,18.20
2017,05,23,10,11,18.20
2017,05,23,10,12,18.20
2017,05,23,10,13,18.20
2017,05,23,10,14,18.20
2017,05,23,10,15,18.30
2017,05,23,10,16,18.40
2017,05,23,10,17,18.50
2017,05,23,10,18,18.50
2017,05,23,10,19,18.60
2017,05,23,10,20,18.70
2017,05,23,10,21,18.80
2017,05,23,10,22,18.90
2017,05,23,10,23,19.00
2017,05,23,10,24,19.10
2017,05,23,10,25,19.20
2017,05,23,10,26,19.30
2017,05,23,10,27,19.40
2017,05,23,10,28,19.50
2017,05,23,10,29,19.50
2017,05,23,10,30,19.60
2017,05,23,10,31,19.50
2017,05,23,10,32,19.40
2017,05,23,10,33,19.30
2017,05,23,10,34,19.20
2017,05,23,10,35,19.10
2017,05,23,10,36,19.00
2017,05,23,10,37,19.00
2017,05,23,10,38,19.00
2017,05,23,10,39,19.00
2017,05,23,10,40,19.00
2017,05,23,10,41,19.10
2017,05,23,10,42,19.10
2017,05,23,10,43,19.10
2017,05,23,10,44,19.20
2017,05,23,10,45,19.20
2017,05,23,10,46,19.20
2017,05,23,10,47,19.20
2017,05,23,10,48,19.30
2017,05,23,10,49,19.30
2017,05,23,10,50,19.30
2017,05,23,10,51,19.40
2017,05,23,10,52,19.40
2017,05,23,10,53,19.40
2017,05,23,10,54,19.40
2017,05,23,10,55,19.40
2017,05,23,10,56,19.40
2017,05,23,10,57,19.40
2017,05,23,10,58,19.30
2017,05,23,10,59,19.30
2017,05,23,11,00,19.30
2017,05,23,11,01,19.30
2017,05,23,11,02,19.40
2017,05,23,11,03,19.50
2017,05,23,11,04,19.50
2017,05,23,11,05,19.60
2017,05,23,11,06,19.70
2017,05,23,11,07,19.80
2017,05,23,11,08,19.90
2017,05,23,11,09,19.90
2017,05,23,11,10,19.90
2017,05,23,11,11,19.90
2017,05,23,11,12,19.90
2017,05,23,11,13,19.80
2017,05,23,11,14,19.70
2017,05,23,11,15,19.70
2017,05,23,11,16,19.80
2017,05,23,11,17,19.80
2017,05,23,11,18,19.90
2017,05,23,11,19,20.00
2017,05,23,11,20,20.10
2017,05,23,11,21,20.10
2017,05,23,11,22,20.20
2017,05,23,11,23,20.30
2017,05,23,11,24,20.40
2017,05,23,11,25,20.40
2017,05,23,11,26,20.40
2017,05,23,11,27,20.40
2017,05,23,11,28,20.40
2017,05,23,11,29,20.40
2017,05,23,11,30,20.40
2017,05,23,11,31,20.40
2017,05,23,11,32,20.50
2017,05,23,11,33,20.50
2017,05,23,11,34,20.50
2017,05,23,11,35,20.60
2017,05,23,11,36,20.60
2017,05,23,11,37,20.60
2017,05,23,11,38,20.70
2017,05,23,11,39,20.60
2017,05,23,11,40,20.60
2017,05,23,11,41,20.60
2017,05,23,11,42,20.50
2017,05,23,11,43,20.50
2017,05,23,11,44,20.40
2017,05,23,11,45,20.40
2017,05,23,11,46,20.40
2017,05,23,11,47,20.40
2017,05,23,11,48,20.50
2017,05,23,11,49,20.60
2017,05,23,11,50,20.60
2017,05,23,11,51,20.70
2017,05,23,11,52,20.80
2017,05,23,11,53,20.90
2017,05,23,11,54,21.00
2017,05,23,11,55,21.10
2017,05,23,11,56,21.20
2017,05,23,11,57,21.20
2017,05,23,11,58,21.30
2017,05,23,11,59,21.30
2017,05,23,12,00,21.30
2017,05,23,12,01,21.30
2017,05,23,12,02,21.30
2017,05,23,12,03,21.30
2017,05,23,12,04,21.30
2017,05,23,12,05,21.20
2017,05,23,12,06,21.10
2017,05,23,12,07,21.10
2017,05,23,12,08,21.00
2017,05,23,12,09,21.00
2017,05,23,12,10,20.90
2017,05,23,12,11,20.90
2017,05,23,12,12,20.80
2017,05,23,12,13,20.80
2017,05,23,12,14,20.80
2017,05,23,12,15,20.80
2017,05,23,12,16,20.80
2017,05,23,12,17,20.80
2017,05,23,12,18,20.80
2017,05,23,12,19,20.80
2017,05,23,12,20,20.70
2017,05,23,12,21,20.60
2017,05,23,12,22,20.50
2017,05,23,12,23,20.40
2017,05,23,12,24,20.30
2017,05,23,12,25,20.20
2017,05,23,12,26,20.20
2017,05,23,12,27,20.20
2017,05,23,12,28,20.20
2017,05,23,12,29,20.20
2017,05,23,12,30,20.10
2017,05,23,12,31,20.20
2017,05,23,12,32,20.20
2017,05,23,12,33,20.20
2017,05,23,12,34,20.20
2017,05,23,12,35,20.20
2017,05,23,12,36,20.20
2017,05,23,12,37,20.20
2017,05,23,12,38,20.20
2017,05,23,12,39,20.20
2017,05,23,12,40,20.20
2017,05,23,12,41,20.10
2017,05,23,12,42,20.10
2017,05,23,12,43,20.20
2017,05,23,12,44,20.20
2017,05,23,12,45,20.20
2017,05,23,12,46,20.20
2017,05,23,12,47,20.30
2017,05,23,12,48,20.30
2017,05,23,12,49,20.40
2017,05,23,12,50,20.40
2017,05,23,12,51,20.40
2017,05,23,12,52,20.40
2017,05,23,12,53,20.40
2017,05,23,12,54,20.50
2017,05,23,12,55,20.50
2017,05,23,12,56,20.50
2017,05,23,12,57,20.60
2017,05,23,12,58,20.70
2017,05,23,12,59,20.70
2017,05,23,13,00,20.70
2017,05,23,13,01,20.70
2017,05,23,13,02,20.70
2017,05,23,13,03,20.70
2017,05,23,13,04,20.70
2017,05,23,13,05,20.70
2017,05,23,13,06,20.70
2017,05,23,13,07,20.70
2017,05,23,13,08,20.60
2017,05,23,13,09,20.60
2017,05,23,13,10,20.60
2017,05,23,13,11,20.60
2017,05,23,13,12,20.60
2017,05,23,13,13,20.60
2017,05,23,13,14,20.60
2017,05,23,13,15,20.60
2017,05,23,13,16,20.50
2017,05,23,13,17,20.40
2017,05,23,13,18,20.40
2017,05,23,13,19,20.30
2017,05,23,13,20,20.30
2017,05,23,13,21,20.20
2017,05,23,13,22,20.10
2017,05,23,13,23,20.00
2017,05,23,13,24,20.00
2017,05,23,13,25,19.90
2017,05,23,13,26,19.80
2017,05,23,13,27,19.80
2017,05,23,13,28,19.70
2017,05,23,13,29,19.70
2017,05,23,13,30,19.60
2017,05,23,13,31,19.60
2017,05,23,13,32,19.50
2017,05,23,13,33,19.50
2017,05,23,13,34,19.50
2017,05,23,13,35,19.50
2017,05,23,13,36,19.50
2017,05,23,13,37,19.40
2017,05,23,13,38,19.40
2017,05,23,13,39,19.30
2017,05,23,13,40,19.30
2017,05,23,13,41,19.30
2017,05,23,13,42,19.20
2017,05,23,13,43,19.20
2017,05,23,13,44,19.10
2017,05,23,13,45,19.10
2017,05,23,13,46,19.00
2017,05,23,13,47,18.90
2017,05,23,13,48,18.90
2017,05,23,13,49,18.80
2017,05,23,13,50,18.80
2017,05,23,13,51,18.80
2017,05,23,13,52,18.80
2017,05,23,13,53,18.80
2017,05,23,13,54,18.80
2017,05,23,13,55,18.80
2017,05,23,13,56,18.80
2017,05,23,13,57,18.80
2017,05,23,13,58,18.80
2017,05,23,13,59,18.70
2017,05,23,14,00,18.70
2017,05,23,14,01,18.70
2017,05,23,14,02,18.80
2017,05,23,14,03,18.80
2017,05,23,14,04,18.80
2017,05,23,14,05,18.80
2017,05,23,14,06,18.80
2017,05,23,14,07,18.80
2017,05,23,14,08,18.80
2017,05,23,14,09,18.80
2017,05,23,14,10,18.70
2017,05,23,14,11,18.70
2017,05,23,14,12,18.60
2017,05,23,14,13,18.60
2017,05,23,14,14,18.60
2017,05,23,14,15,18.50
2017,05,23,14,16,18.50
2017,05,23,14,17,18.50
2017,05,23,14,18,18.50
2017,05,23,14,19,18.40
2017,05,23,14,20,18.40
2017,05,23,14,21,18.30
2017,05,23,14,22,18.30
2017,05,23,14,23,18.30
2017,05,23,14,24,18.30
2017,05,23,14,25,18.30
2017,05,23,14,26,18.40
2017,05,23,14,27,18.40
2017,05,23,14,28,18.50
2017,05,23,14,29,18.60
2017,05,23,14,30,18.70
2017,05,23,14,31,18.80
2017,05,23,14,32,19.00
2017,05,23,14,33,19.10
2017,05,23,14,34,19.30
2017,05,23,14,35,19.50
2017,05,23,14,36,19.70
2017,05,23,14,37,19.90
2017,05,23,14,38,20.10
2017,05,23,14,39,20.20
2017,05,23,14,40,20.40
2017,05,23,14,41,20.50
2017,05,23,14,42,20.70
2017,05,23,14,43,20.80
2017,05,23,14,44,21.00
2017,05,23,14,45,21.10
2017,05,23,14,46,21.20
2017,05,23,14,47,21.40
2017,05,23,14,48,21.50
2017,05,23,14,49,21.60
2017,05,23,14,50,21.60
2017,05,23,14,51,21.50
2017,05,23,14,52,21.50
2017,05,23,14,53,21.50
2017,05,23,14,54,21.50
2017,05,23,14,55,21.60
2017,05,23,14,56,21.50
2017,05,23,14,57,21.40
2017,05,23,14,58,21.30
2017,05,23,14,59,21.30
2017,05,23,15,00,21.30
2017,05,23,15,01,21.20
2017,05,23,15,02,21.00
2017,05,23,15,03,20.90
2017,05,23,15,04,20.70
2017,05,23,15,05,20.50
2017,05,23,15,06,20.40
2017,05,23,15,07,20.30
2017,05,23,15,08,20.30
2017,05,23,15,09,20.30
2017,05,23,15,10,20.30
2017,05,23,15,11,20.30
2017,05,23,15,12,20.30
2017,05,23,15,13,20.30
2017,05,23,15,14,20.20
2017,05,23,15,15,20.10
2017,05,23,15,16,20.10
2017,05,23,15,17,20.10
2017,05,23,15,18,20.10
2017,05,23,15,19,20.20
2017,05,23,15,20,20.20
2017,05,23,15,21,20.30
2017,05,23,15,22,20.40
2017,05,23,15,23,20.40
2017,05,23,15,24,20.40
2017,05,23,15,25,20.40
2017,05,23,15,26,20.50
2017,05,23,15,27,20.40
2017,05,23,15,28,20.40
2017,05,23,15,29,20.40
2017,05,23,15,30,20.40
2017,05,23,15,31,20.30
2017,05,23,15,32,20.20
2017,05,23,15,33,20.00
2017,05,23,15,34,19.80
2017,05,23,15,35,19.70
2017,05,23,15,36,19.50
2017,05,23,15,37,19.40
2017,05,23,15,38,19.30
2017,05,23,15,39,19.20
2017,05,23,15,40,19.20
2017,05,23,15,41,19.20
2017,05,23,15,42,19.10
2017,05,23,15,43,19.10
2017,05,23,15,44,19.10
2017,05,23,15,45,19.10
2017,05,23,15,46,19.10
2017,05,23,15,47,19.20
2017,05,23,15,48,19.20
2017,05,23,15,49,19.20
2017,05,23,15,50,19.10
2017,05,23,15,51,19.00
2017,05,23,15,52,19.00
2017,05,23,15,53,18.90
2017,05,23,15,54,18.80
2017,05,23,15,55,18.80
2017,05,23,15,56,18.80
2017,05,23,15,57,18.70
2017,05,23,15,58,18.60
2017,05,23,15,59,18.50
2017,05,23,16,00,18.30
2017,05,23,16,01,18.20
2017,05,23,16,02,18.20
2017,05,23,16,03,18.20
2017,05,23,16,04,18.20
2017,05,23,16,05,18.20
2017,05,23,16,06,18.10
2017,05,23,16,07,18.10
2017,05,23,16,08,18.00
2017,05,23,16,09,18.10
2017,05,23,16,10,18.00
2017,05,23,16,11,17.90
2017,05,23,16,12,17.80
2017,05,23,16,13,17.80
2017,05,23,16,14,17.80
2017,05,23,16,15,17.80
2017,05,23,16,16,17.70
2017,05,23,16,17,17.70
2017,05,23,16,18,17.70
2017,05,23,16,19,17.60
2017,05,23,16,20,17.50
2017,05,23,16,21,17.40
2017,05,23,16,22,17.30
2017,05,23,16,23,17.20
2017,05,23,16,24,17.10
2017,05,23,16,25,17.00
2017,05,23,16,26,17.00
2017,05,23,16,27,17.00
2017,05,23,16,28,17.00
2017,05,23,16,29,17.00
2017,05,23,16,30,17.00
2017,05,23,16,31,17.00
2017,05,23,16,32,16.80
2017,05,23,16,33,16.70
2017,05,23,16,34,16.60
2017,05,23,16,35,16.40
2017,05,23,16,36,16.40
2017,05,23,16,37,16.30
2017,05,23,16,38,16.30
2017,05,23,16,39,16.20
2017,05,23,16,40,16.20
2017,05,23,16,41,16.10
2017,05,23,16,42,16.20
2017,05,23,16,43,16.20
2017,05,23,16,44,16.20
2017,05,23,16,45,16.10
2017,05,23,16,46,16.10
2017,05,23,16,47,16.10
2017,05,23,16,48,16.00
2017,05,23,16,49,16.00
2017,05,23,16,50,15.80
2017,05,23,16,51,15.70
2017,05,23,16,52,15.70
2017,05,23,16,53,15.80
2017,05,23,16,54,15.80
2017,05,23,16,55,15.80
2017,05,23,16,56,15.70
2017,05,23,16,57,15.60
2017,05,23,16,58,15.60
2017,05,23,16,59,15.60
2017,05,23,17,00,15.60
2017,05,23,17,01,15.50
2017,05,23,17,02,15.50
2017,05,23,17,03,15.40
2017,05,23,17,04,15.30
2017,05,23,17,05,15.30
2017,05,23,17,06,15.30
2017,05,23,17,07,15.20
2017,05,23,17,08,15.10
2017,05,23,17,09,15.10
2017,05,23,17,10,15.00
2017,05,23,17,11,14.90
2017,05,23,17,12,14.80
2017,05,23,17,13,14.70
2017,05,23,17,14,14.70
2017,05,23,17,15,14.70
2017,05,23,17,16,14.70
2017,05,23,17,17,14.70
2017,05,23,17,18,14.70
2017,05,23,17,19,14.70